Weather History for KNJM - February, 2014

Change the Weather History Date:

Saturday, February 1, 2014

  Actual Average (KNKT) Record (KNKT)
Temperature  
Mean Temperature 44 °F -  
Max Temperature 61 °F 53 °F 75 °F (2002)
Min Temperature 28 °F 34 °F 23 °F (2004)
Degree Days  
Heating Degree Days 20    
Moisture  
Dew Point 38 °F    
Average Humidity 80    
Maximum Humidity 97    
Minimum Humidity 34    
Precipitation  
Precipitation 0.11 in - - ()
Sea Level Pressure  
Sea Level Pressure 30.17 in    
Wind  
Wind Speed 4 mph (North)    
Max Wind Speed 10 mph    
Max Gust Speed -    
Visibility 6 miles    
Events Fog , Rain    
Averages and records for this station are not official NWS values.
T = Trace of Precipitation, MM = Missing Value Source: NWS Daily Summary

Daily Weather History Graph

Daily Weather History Graph

Search for Another Location

Airport or City:

Trip Planner

Search our weather history database for the weather conditions in past years. The results will help you decide how hot, cold, wet, or windy it might be!

Date:

Astronomy

Feb. 01, 2014 Rise Set
Actual Time 7:06 AM EST 5:37 PM EST
Civil Twilight 6:39 AM EST 6:03 PM EST
Nautical Twilight 6:09 AM EST 6:34 PM EST
Astronomical Twilight 5:40 AM EST 7:03 PM EST
Moon 8:01 AM EST (2/1) 8:02 PM EST (2/1)
Length of Visible Light 11h 24m
Length of Day
10h 31m
Waxing Crescent, 5% of the Moon is Illuminated
Feb 1
Waxing Crescent
Feb 6
First Quarter
Feb 14
Full
Feb 22
Last Quarter
Mar 1
New

Hourly Weather History & Observations

Time (EST) Temp. Windchill Dew Point Humidity Pressure Visibility Wind Dir Wind Speed Gust Speed Precip Events Conditions
12:09 AM 28.9 °F - 26.1 °F 89% 30.22 in 7.0 mi Calm Calm - N/A   Mostly Cloudy
12:20 AM 28.0 °F - 25.0 °F 88% 30.22 in 7.0 mi Calm Calm - N/A   Scattered Clouds
12:57 AM 28.9 °F - 27.0 °F 92% 30.23 in 9.0 mi Calm Calm - N/A   Clear
1:57 AM 32.0 °F 28.7 °F 30.9 °F 96% 30.23 in 10.0 mi NNW 3.5 mph - N/A   Clear
2:57 AM 30.0 °F - 27.0 °F 88% 30.22 in 10.0 mi Calm Calm - N/A   Clear
3:57 AM 34.0 °F 27.2 °F 30.9 °F 89% 30.22 in 9.0 mi NNW 8.1 mph - N/A   Clear
4:57 AM 35.1 °F 29.3 °F 30.9 °F 85% 30.23 in 10.0 mi North 6.9 mph - N/A   Clear
5:57 AM 36.0 °F 30.3 °F 30.9 °F 82% 30.25 in 10.0 mi NNE 6.9 mph - N/A   Clear
6:57 AM 36.0 °F 32.1 °F 32.0 °F 86% 30.25 in 10.0 mi NE 4.6 mph - N/A   Overcast
7:57 AM 36.0 °F 33.3 °F 33.1 °F 89% 30.27 in 10.0 mi NE 3.5 mph - N/A   Clear
8:57 AM 45.0 °F 41.8 °F 35.1 °F 68% 30.26 in 10.0 mi ENE 5.8 mph - N/A   Partly Cloudy
9:57 AM 48.9 °F - 32.0 °F 52% 30.28 in 10.0 mi ESE 4.6 mph - N/A   Mostly Cloudy
10:57 AM 54.0 °F - 30.0 °F 40% 30.26 in 10.0 mi East 4.6 mph - N/A   Mostly Cloudy
11:57 AM 54.0 °F - 32.0 °F 43% 30.23 in 10.0 mi ESE 4.6 mph - N/A   Overcast
12:25 PM 55.9 °F - 30.9 °F 39% 30.20 in 10.0 mi ESE 4.6 mph - N/A   Overcast
12:57 PM 57.9 °F - 32.0 °F 37% 30.19 in 10.0 mi East 4.6 mph - N/A   Overcast
1:57 PM 61.0 °F - 32.0 °F 34% 30.16 in 10.0 mi NNE 3.5 mph - N/A   Overcast
2:24 PM 59.0 °F - 34.0 °F 39% 30.14 in 10.0 mi NNW 3.5 mph - 0.00 in   Overcast
2:43 PM 55.0 °F - 39.0 °F 55% 30.14 in 6.0 mi NNW 5.8 mph - 0.00 in Rain Light Rain
2:57 PM 55.9 °F - 41.0 °F 57% 30.15 in 10.0 mi North 6.9 mph - 0.00 in   Overcast
3:57 PM 51.1 °F - 39.9 °F 66% 30.15 in 5.0 mi NNW 3.5 mph - 0.00 in Rain Light Rain
4:12 PM 50.0 °F - 41.0 °F 71% 30.13 in 4.0 mi North 5.8 mph - 0.00 in Rain Light Rain
4:22 PM 48.9 °F - 42.1 °F 77% 30.14 in 1.8 mi North 5.8 mph - 0.01 in Rain Rain
4:54 PM 46.4 °F 41.9 °F 42.8 °F 87% 30.14 in 4.0 mi North 9.2 mph - 0.03 in Rain Light Rain
4:57 PM 46.9 °F - 43.0 °F 86% 30.15 in 4.0 mi North 10.4 mph - 0.03 in Rain Light Rain
5:05 PM 46.0 °F 41.9 °F 43.0 °F 89% 30.14 in 2.0 mi North 8.1 mph - 0.01 in Rain Light Rain
5:14 PM 46.0 °F 42.5 °F 42.1 °F 86% 30.14 in 5.0 mi Variable 6.9 mph - 0.01 in Rain Light Rain
5:47 PM 46.0 °F 41.9 °F 43.0 °F 89% 30.12 in 2.0 mi NNE 8.1 mph - 0.05 in Rain Heavy Rain
5:57 PM 46.0 °F 43.9 °F 43.0 °F 89% 30.14 in 6.0 mi Variable 4.6 mph - 0.08 in Rain Light Rain
6:20 PM 46.0 °F 43.9 °F 44.1 °F 93% 30.13 in 6.0 mi NNE 4.6 mph - 0.00 in   Overcast
6:57 PM 46.0 °F 43.1 °F 43.0 °F 89% 30.13 in 9.0 mi NE 5.8 mph - 0.00 in   Overcast
7:24 PM 46.0 °F 43.9 °F 44.1 °F 93% 30.11 in 5.0 mi NNE 4.6 mph - N/A   Overcast
7:43 PM 46.0 °F 44.8 °F 44.1 °F 93% 30.11 in 2.5 mi NE 3.5 mph - N/A   Overcast
7:57 PM 46.0 °F 43.9 °F 44.1 °F 93% 30.13 in 1.2 mi NNW 4.6 mph - N/A   Overcast
8:19 PM 46.0 °F 43.9 °F 44.1 °F 93% 30.12 in 0.8 mi NNW 4.6 mph - N/A   Mist
8:39 PM 46.0 °F 44.8 °F 45.0 °F 96% 30.12 in 0.5 mi NW 3.5 mph - N/A Fog Fog
8:57 PM 45.0 °F 42.6 °F 44.1 °F 97% 30.14 in 0.5 mi NW 4.6 mph - N/A Fog Fog
9:22 PM 45.0 °F 41.2 °F 43.0 °F 93% 30.13 in 0.2 mi NW 6.9 mph - N/A Fog Fog
9:46 PM 45.0 °F 42.6 °F 43.0 °F 93% 30.13 in 0.5 mi North 4.6 mph - N/A Fog Fog
9:57 PM 44.1 °F 42.5 °F 43.0 °F 96% 30.14 in 0.5 mi NNW 3.5 mph - N/A Fog Fog
10:17 PM 44.1 °F 42.5 °F 43.0 °F 96% 30.12 in 0.2 mi NNW 3.5 mph - N/A Fog Fog
10:30 PM 44.1 °F 42.5 °F 43.0 °F 96% 30.12 in 0.5 mi NNW 3.5 mph - N/A Fog Fog
10:57 PM 44.1 °F 40.8 °F 43.0 °F 96% 30.14 in 0.5 mi WNW 5.8 mph - N/A Fog Fog
11:26 PM 44.1 °F - 43.0 °F 96% 30.13 in 0.2 mi Calm Calm - N/A Fog Fog
11:57 PM 43.0 °F 41.3 °F 42.1 °F 97% 30.13 in 0.2 mi NW 3.5 mph - N/A Fog Fog